Regional Weather Roundup
Issued by NWS Green Bay, WI

Home | Current Version | Previous Version | Text Only | Print | Product List | Glossary On
Versions: 1 2 3 4 5 6 7 8 9 10 11 12 13 14 15 16 17 18 19 20 21 22 23 24 25 26 27 28 29 30 31 32 33 34 35 36 37 38 39 40 41 42 43 44 45 46 47 48 49 50
197
ASUS43 KGRB 060311
RWRGRB

NORTH-CENTRAL AND NORTHEAST WISCONSIN REGIONAL WEATHER ROUNDUP
NATIONAL WEATHER SERVICE GREEN BAY WI
900 PM CST FRI FEB 05 2016

WIZ005-009-010>012-018-019-060400-
NORTH CENTRAL WISCONSIN

CITY           SKY/WX    TMP DP  RH WIND       PRES   REMARKS
IRONWOOD       CLOUDY    25  10  54 SW15      30.08S
MANITOWISH WTR CLOUDY    21  10  62 SW12G20   30.10F WCI   9
ARBOR VITAE    CLOUDY    22  13  69 SW9       30.12F
EAGLE RIVER    CLOUDY    21  10  62 SW10      30.11F
LAND O LAKES   CLOUDY    23   9  55 SW10G18   30.10F
RHINELANDER    CLOUDY    21  12  68 SW13      30.14F WCI   9
PHILLIPS       CLOUDY    20  12  71 SW8       30.14F
ANTIGO         CLOUDY    17  11  78 SW3       30.18S
TOMAHAWK       CLOUDY    19  12  74 S3        30.17F
MERRILL        CLOUDY    20  14  78 SW5       30.19F
$$

WIZ013-073-060400-
NORTHEAST WISCONSIN

CITY           SKY/WX    TMP DP  RH WIND       PRES   REMARKS
IRON MOUNTAIN  CLOUDY    25   9  50 SW8       30.14F
MARINETTE      CLOUDY    21  14  73 SW9       30.23F
OCONTO         CLOUDY    14  13  97 S3        30.25F
$$

WIZ017-030-035>037-045-060400-
CENTRAL WISCONSIN

CITY           SKY/WX    TMP DP  RH WIND       PRES   REMARKS
MEDFORD        CLOUDY    20  14  77 S9        30.17F WCI   9
WAUSAU         CLOUDY    22  13  68 SW7       30.19S
MOSINEE        MOCLDY    19  16  86 S6        30.22S
MARSHFIELD     CLOUDY    21  12  68 SW8       30.20S
WISC RAPIDS    CLOUDY    22  14  71 SW5       30.24F
STEVENS POINT  CLOUDY    19  14  79 SW5       30.23S
WAUPACA        CLOUDY    22  17  81 S3        30.25F
SHAWANO        CLOUDY    24  16  70 CALM      30.24F
CLINTONVILLE   CLOUDY    19  12  73 S3        30.24F
WAUTOMA        CLOUDY    25  18  74 S7        30.26F
$$

WIZ038-039-048-051-060400-
FOX VALLEY

CITY           SKY/WX    TMP DP  RH WIND       PRES   REMARKS
NWS GREEN BAY  CLOUDY    22  16  78 S7        30.26F
APPLETON       CLOUDY    21  16  79 S8        30.23F
OSHKOSH        CLOUDY    22  15  75 S8        30.26F
FOND DU LAC    CLOUDY    24  15  68 S6        30.27F
$$

WIZ022-050-052-060400-
EAST CENTRAL WISCONSIN

CITY           SKY/WX    TMP DP  RH WIND       PRES   REMARKS
EPHRAIM        CLOUDY    22  15  74 SW5       30.22F
STURGEON BAY   CLOUDY    18  10  73 S7        30.26F WCI   8
MANITOWOC      CLOUDY    24  17  74 SW7       30.28F
SHEBOYGAN      CLOUDY    24  16  71 SW6       30.28F
$$

LMZ563-521-522-541>543-060400-
LAKESHORE

STATION/POSITION TIME  TEMP    WIND        PRES    VSBY  WAVE
                       AIR SEA DIR/SP/G                  HT/PER
                 (UTC) (F)     (DEG/KT/KT) (MB)    (MI)  (FT/S)
SHEBOYGAN LKSHOR 0300   26     230/  7/  8 1026.8F
KEWAUNEE LKSHORE 0200   22     310/  5/  8 1024.4F
ALGOMA MARINA    0241          250/  5/  7   N/A
CHAMBERS ISLAND  0200   22     180/  7/ 11 1024.0F
MENOMINEE LKSHOR 0200   21     180/  8     1023.2F
$$




USA.gov is the U.S. government's official web portal to all federal, state and local government web resources and services.